Weather History for New York, NY

Change the Weather History Date:

Monday, January 7, 2013

  Actual Average Record
Temperature  
Mean Temperature 42 °F 33 °F  
Max Temperature 45 °F 39 °F 62 °F (2012)
Min Temperature 38 °F 27 °F 4 °F (2014)
Degree Days  
Heating Degree Days 23 32  
Month to date heating degree days 204 220  
Since 1 July heating degree days 1656 1826  
Cooling Degree Days 0 0  
Month to date cooling degree days 0 0  
Year to date cooling degree days 0 0  
Moisture  
Dew Point 24 °F    
Average Humidity 51    
Maximum Humidity 64    
Minimum Humidity 37    
Precipitation  
Precipitation 0.00 in 0.10 in 1.13 in (1998)
Month to date precipitation T 0.72  
Year to date precipitation T 0.72  
Snow  
Snow 0.00 in 0.20 in 17.10 in (1996)
Month to date snowfall T 1.6  
Since 1 July snowfall 2.0 7.1  
Snow Depth 0.00 in    
Sea Level Pressure  
Sea Level Pressure 30.28 in    
Wind  
Wind Speed 9 mph (WNW)    
Max Wind Speed 18 mph    
Max Gust Speed 23 mph    
Visibility 10 miles    
Events      
T = Trace of Precipitation, MM = Missing Value Source: NWS Daily Summary

Daily Weather History Graph

Daily Weather History Graph

Search for Another Location

Airport:

Trip Planner

Search our weather history database for the weather conditions in past years. The results will help you decide how hot, cold, wet, or windy it might be!

Date:

Astronomy

Jan. 07, 2013 Rise Set
Actual Time 7:19 AM EST 4:44 PM EST
Civil Twilight 6:49 AM EST 5:15 PM EST
Nautical Twilight 6:14 AM EST 5:49 PM EST
Astronomical Twilight 5:41 AM EST 6:22 PM EST
Moon 2:40 AM EST (1/7) 12:53 PM EST (1/7)
Length of Visible Light 10h 25m
Length of Day
9h 24m
Waning Crescent, 23% of the Moon is Illuminated
Jan 7
Waning Crescent
Jan 11
New
Jan 18
First Quarter
Jan 26
Full
Feb 3
Last Quarter

Hourly Weather History & Observations

Time (EST) Temp. Windchill Dew Point Humidity Pressure Visibility Wind Dir Wind Speed Gust Speed Precip Events Conditions
12:51 AM 42.1 °F 35.7 °F 27.0 °F 55% 30.06 in 10.0 mi WNW 11.5 mph 18.4 mph N/A   Scattered Clouds
1:51 AM 41.0 °F 33.5 °F 27.0 °F 57% 30.08 in 10.0 mi WNW 13.8 mph - N/A   Scattered Clouds
2:51 AM 39.2 °F 31.2 °F 26.6 °F 61% 30.09 in 10.0 mi WNW 13.8 mph 20.7 mph N/A   Partly Cloudy
3:51 AM 39.9 °F 32.1 °F 27.0 °F 60% 30.10 in 10.0 mi WNW 13.8 mph - N/A   Partly Cloudy
4:51 AM 39.9 °F 31.4 °F 28.0 °F 63% 30.13 in 10.0 mi WNW 16.1 mph - N/A   Partly Cloudy
5:51 AM 39.9 °F 33.4 °F 28.0 °F 63% 30.16 in 10.0 mi WNW 10.4 mph - N/A   Partly Cloudy
6:51 AM 39.0 °F 31.4 °F 28.0 °F 65% 30.19 in 10.0 mi WNW 12.7 mph - N/A   Partly Cloudy
7:51 AM 39.9 °F 32.1 °F 28.9 °F 65% 30.23 in 10.0 mi WNW 13.8 mph - N/A   Mostly Cloudy
8:51 AM 41.0 °F 32.8 °F 28.0 °F 60% 30.25 in 10.0 mi NW 16.1 mph 21.9 mph N/A   Partly Cloudy
9:51 AM 42.1 °F 34.5 °F 27.0 °F 55% 30.29 in 10.0 mi NW 15.0 mph - N/A   Partly Cloudy
10:51 AM 43.0 °F 36.4 °F 26.1 °F 51% 30.31 in 10.0 mi NW 12.7 mph - N/A   Partly Cloudy
11:51 AM 43.0 °F 36.0 °F 24.1 °F 47% 30.31 in 10.0 mi WNW 13.8 mph - N/A   Partly Cloudy
12:51 PM 44.1 °F 39.5 °F 21.0 °F 40% 30.32 in 10.0 mi NNW 8.1 mph - N/A   Partly Cloudy
1:51 PM 45.0 °F 40.6 °F 21.9 °F 40% 30.32 in 10.0 mi WNW 8.1 mph - N/A   Clear
2:51 PM 45.0 °F 39.7 °F 21.9 °F 40% 30.35 in 10.0 mi NW 10.4 mph - N/A   Clear
3:51 PM 45.0 °F 41.2 °F 19.0 °F 36% 30.37 in 10.0 mi NW 6.9 mph - N/A   Clear
4:51 PM 43.0 °F - 21.9 °F 43% 30.38 in 10.0 mi Calm Calm - N/A   Clear
5:51 PM 41.0 °F - 21.0 °F 45% 30.39 in 10.0 mi Calm Calm - N/A   Clear
6:51 PM 39.9 °F - 21.0 °F 47% 30.39 in 10.0 mi Calm Calm - N/A   Clear
7:51 PM 41.0 °F - 19.0 °F 41% 30.40 in 10.0 mi Calm Calm - N/A   Clear
8:51 PM 41.0 °F - 19.9 °F 43% 30.40 in 10.0 mi Calm Calm - N/A   Clear
9:51 PM 39.9 °F 34.5 °F 21.0 °F 47% 30.39 in 10.0 mi SE 8.1 mph - N/A   Clear
10:51 PM 37.9 °F 33.5 °F 23.0 °F 55% 30.39 in 10.0 mi SSE 5.8 mph - N/A   Clear
11:51 PM 39.0 °F 34.0 °F 21.0 °F 49% 30.39 in 10.0 mi SW 6.9 mph - N/A   Clear